FW7611 Weather Reports


Display with metric or nautical units.
time (UTC)temp
F
wind
direction
speed
MPH
gust
MPH
rain 1hr
in
rain 24hr
in
rain mn
in
humidity
%
barometer
mb
20260831001552 76 0 0.0 0.0 0.00 0.00 0.00 82 1022.3
20260831000055 77 0 0.0 0.0 0.00 0.00 0.00 81 1022.2
20260830234547 78 0 0.0 2.0 0.00 0.00 0.00 78 1022.4
20260830233051 79 0 0.0 1.0 0.00 0.00 0.00 75 1022.4
20260830231552 81 0 0.0 0.0 0.00 0.00 0.00 71 1022.4
20260830230049 82 0 0.0 2.0 0.00 0.00 0.00 69 1022.3
20260830224543 82 0 0.0 2.0 0.00 0.00 0.00 67 1022.4
20260830223053 83 207 0.0 2.0 0.00 0.00 0.00 66 1022.2
20260830221550 83 0 0.0 2.0 0.00 0.00 0.00 64 1022.0
20260830220048 84 0 0.0 0.0 0.00 0.00 0.00 65 1022.1
20260830214552 84 191 0.0 4.0 0.00 0.00 0.00 64 1022.2
20260830213046 84 0 0.0 5.0 0.00 0.00 0.00 62 1022.2
20260830211552 84 0 1.0 4.0 0.00 0.00 0.00 63 1022.2
20260830210053 84 0 1.0 6.0 0.00 0.00 0.00 64 1022.3
20260830204550 84 0 0.0 2.0 0.00 0.00 0.00 65 1022.4
20260830203057 84 169 1.0 3.0 0.00 0.00 0.00 63 1022.5
20260830201558 84 190 1.0 4.0 0.00 0.00 0.00 64 1022.5
20260830200049 84 128 0.0 5.0 0.00 0.00 0.00 63 1022.7
20260830194548 83 173 1.0 3.0 0.00 0.00 0.00 64 1022.7
20260830193042 85 304 0.0 3.0 0.00 0.00 0.00 63 1022.9
20260830191541 84 211 0.0 3.0 0.00 0.00 0.00 64 1023.0
20260830190050 83 0 0.0 2.0 0.00 0.00 0.00 65 1023.2
20260830184542 84 345 0.0 2.0 0.00 0.00 0.00 63 1023.5
20260830183105 84 327 1.0 2.0 0.00 0.00 0.00 63 1023.9
20260830181556 85 167 2.0 5.0 0.00 0.00 0.00 62 1024.1
20260830180049 84 202 3.0 5.0 0.00 0.00 0.00 64 1024.3
20260830174551 82 295 0.0 3.0 0.00 0.00 0.00 66 1024.3
20260830173104 83 149 1.0 2.0 0.00 0.00 0.00 67 1024.7
20260830171553 79 300 0.0 2.0 0.00 0.00 0.00 71 1024.9
20260830170051 80 305 0.0 2.0 0.00 0.00 0.00 71 1025.1
20260830164606 80 0 0.0 1.0 0.00 0.00 0.00 74 1025.2
20260830163058 79 308 1.0 1.0 0.00 0.00 0.00 74 1025.3
20260830161550 80 0 0.0 2.0 0.00 0.00 0.00 74 1025.5
20260830160049 80 317 1.0 2.0 0.00 0.00 0.00 73 1025.6
20260830154542 81 300 0.0 2.0 0.00 0.00 0.00 70 1025.6
20260830153041 82 44 1.0 4.0 0.00 0.00 0.00 70 1025.7
20260830151549 80 200 0.0 3.0 0.00 0.00 0.00 73 1025.8
20260830150052 78 21 1.0 4.0 0.00 0.00 0.00 76 1025.7
20260830144557 76 42 1.0 2.0 0.00 0.00 0.00 76 1025.7
20260830143041 77 0 0.0 2.0 0.00 0.00 0.00 77 1025.8
20260830141553 75 202 1.0 4.0 0.00 0.00 0.00 82 1025.7
20260830140048 74 0 0.0 0.0 0.00 0.00 0.00 86 1025.9
20260830134542 73 0 0.0 2.0 0.00 0.00 0.00 87 1026.0
20260830133057 72 0 0.0 2.0 0.00 0.00 0.00 89 1026.1
20260830131548 72 0 0.0 1.0 0.00 0.00 0.00 89 1026.1
20260830130051 72 0 0.0 2.0 0.00 0.00 0.00 89 1026.1
20260830124604 72 0 0.0 2.0 0.00 0.00 0.00 90 1026.0
20260830123047 71 0 0.0 2.0 0.00 0.00 0.00 92 1025.9
20260830121552 71 0 0.0 1.0 0.00 0.00 0.00 92 1025.7
20260830120051 70 43 0.0 2.0 0.00 0.00 0.00 94 1025.8
20260830114546 69 0 0.0 0.0 0.00 0.00 0.00 95 1025.5
20260830113042 68 0 0.0 0.0 0.00 0.00 0.00 94 1025.3
20260830111552 68 0 0.0 0.0 0.00 0.00 0.00 94 1025.0
20260830110047 68 0 0.0 0.0 0.00 0.00 0.00 94 1025.0
20260830104553 69 0 0.0 0.0 0.00 0.00 0.00 94 1024.8
20260830103043 69 0 0.0 0.0 0.00 0.00 0.00 94 1024.6
20260830101552 69 0 0.0 0.0 0.00 0.00 0.00 94 1024.4
20260830100041 70 0 0.0 0.0 0.00 0.00 0.00 94 1024.4
20260830094545 70 0 0.0 0.0 0.00 0.00 0.00 94 1024.4
20260830093051 70 0 0.0 0.0 0.00 0.00 0.00 94 1024.3
20260830091542 70 0 0.0 0.0 0.00 0.00 0.00 94 1024.3
20260830090050 70 0 0.0 0.0 0.00 0.00 0.00 94 1024.4
20260830084549 70 0 0.0 0.0 0.00 0.00 0.00 94 1024.3
20260830083104 70 0 0.0 0.0 0.00 0.00 0.00 94 1024.5
20260830081551 70 0 0.0 0.0 0.00 0.00 0.00 94 1024.5
20260830080051 70 0 0.0 0.0 0.00 0.00 0.00 94 1024.6
20260830074550 70 0 0.0 0.0 0.00 0.00 0.00 94 1024.5
20260830073042 69 0 0.0 0.0 0.00 0.00 0.00 94 1024.6
20260830071600 69 0 0.0 0.0 0.00 0.00 0.00 94 1024.6
20260830064553 69 0 0.0 0.0 0.00 0.00 0.00 94 1025.0
20260830063048 69 0 0.0 0.0 0.00 0.00 0.00 94 1024.9
20260830061602 70 0 0.0 0.0 0.00 0.00 0.00 93 1024.6
20260830060043 70 0 0.0 3.0 0.00 0.00 0.00 93 1025.0
20260830054541 70 0 0.0 0.0 0.00 0.00 0.00 93 1025.0
20260830053050 70 0 0.0 0.0 0.00 0.00 0.00 93 1025.1
20260830051549 70 0 0.0 0.0 0.00 0.00 0.00 92 1025.3
20260830050041 71 0 0.0 0.0 0.00 0.00 0.00 92 1025.3
20260830044552 71 0 0.0 0.0 0.00 0.00 0.00 92 1025.5
20260830043046 71 0 0.0 1.0 0.00 0.00 0.00 92 1025.5
20260830041550 71 0 0.0 0.0 0.00 0.00 0.00 91 1025.5
20260830040041 71 0 0.0 0.0 0.00 0.00 0.00 91 1025.6
20260830034544 72 0 0.0 1.0 0.00 0.00 0.00 90 1025.5
20260830033048 72 0 0.0 0.0 0.00 0.00 0.00 89 1025.5
20260830031542 73 0 0.0 2.0 0.00 0.00 0.00 88 1025.3
20260830030050 73 0 0.0 2.0 0.00 0.00 0.00 86 1025.1
20260830024545 73 0 0.0 2.0 0.00 0.00 0.00 86 1025.1
20260830023041 74 0 0.0 4.0 0.00 0.00 0.00 84 1024.9
20260830021551 74 0 0.0 2.0 0.00 0.00 0.00 84 1024.8
20260830020041 74 0 0.0 0.0 0.00 0.00 0.00 85 1024.6
20260830014551 74 0 0.0 2.0 0.00 0.00 0.00 84 1024.4
20260830013039 74 0 0.0 0.0 0.00 0.00 0.00 85 1024.0
20260830011545 74 0 0.0 0.0 0.00 0.00 0.00 84 1023.8
20260830010043 75 0 0.0 0.0 0.00 0.00 0.00 83 1023.8
20260830004551 75 0 0.0 0.0 0.00 0.00 0.00 83 1023.5
20260830003053 75 0 0.0 0.0 0.00 0.00 0.00 82 1023.4